Weather History for OTBD - March, 2012

Change the Weather History Date:

Wednesday, March 28, 2012

  Actual Average Record
Temperature  
Mean Temperature 84 °F -  
Max Temperature 100 °F 88 °F 98 °F (2012)
Min Temperature 68 °F 69 °F 64 °F (1997)
Cooling Degree Days 19    
Growing Degree Days 34 (Base 50)    
Moisture  
Dew Point 60 °F    
Average Humidity 56    
Maximum Humidity 83    
Minimum Humidity 16    
Precipitation  
Precipitation 0.00 in 0.01 in - ()
Sea Level Pressure  
Sea Level Pressure 29.81 in    
Wind  
Wind Speed 8 mph ()    
Max Wind Speed 17 mph    
Max Gust Speed -    
Visibility 3.8 miles    
Events      
Averages and records for this station are not official NWS values.
T = Trace of Precipitation, MM = Missing Value Source: Averaged Metar Reports

Daily Weather History Graph

Daily Weather History Graph

Search for Another Location

Airport or City:

Trip Planner

Search our weather history database for the weather conditions in past years. The results will help you decide how hot, cold, wet, or windy it might be!

Date:

Astronomy

Mar. 28, 2012 Rise Set
Actual Time 5:29 AM AST 5:48 PM AST
Civil Twilight 5:06 AM AST 6:11 PM AST
Nautical Twilight 4:39 AM AST 6:38 PM AST
Astronomical Twilight 4:12 AM AST 7:05 PM AST
Moon 8:57 AM AST (3/28) 10:51 PM AST (3/28)
Length of Visible Light 13h 05m
Length of Day
12h 19m
Waxing Crescent, 27% of the Moon is Illuminated
Mar 28
Waxing Crescent
Mar 30
First Quarter
Apr 6
Full
Apr 13
Last Quarter
Apr 21
New

Hourly Weather History & Observations

Time (AST) Temp. Heat Index Dew Point Humidity Pressure Visibility Wind Dir Wind Speed Gust Speed Precip Events Conditions
12:00 AM 71.6 °F - 62.6 °F 73% 29.80 in - ENE 8.1 mph - N/A   Clear
12:30 AM 71.6 °F - 62.6 °F 73% 29.80 in - NE 6.9 mph - N/A   Clear
1:00 AM 71.6 °F - 62.6 °F 73% 29.80 in - NE 6.9 mph - N/A   Clear
1:30 AM 71.6 °F - 62.6 °F 73% 29.77 in - NE 6.9 mph - N/A   Clear
2:00 AM 71.6 °F - 62.6 °F 73% 29.77 in - East 6.9 mph - N/A   Clear
2:30 AM 71.6 °F - 62.6 °F 73% 29.77 in - ENE 6.9 mph - N/A   Clear
3:00 AM 72 °F - 62 °F 64% 29.77 in 7 mi ENE 8.1 mph - -   Partly Cloudy
3:00 AM 71.6 °F - 62.6 °F 73% 29.74 in - ENE 8.1 mph - N/A   Clear
3:30 AM 71.6 °F - 62.6 °F 73% 29.74 in - ENE 6.9 mph - N/A   Clear
4:00 AM 71.6 °F - 64.4 °F 78% 29.77 in - East 5.8 mph - N/A   Clear
4:30 AM 71.6 °F - 64.4 °F 78% 29.77 in - ENE 4.6 mph - N/A   Clear
5:00 AM 71.6 °F - 64.4 °F 78% 29.77 in - East 5.8 mph - N/A   Clear
5:30 AM 69.8 °F - 64.4 °F 83% 29.77 in - East 4.6 mph - N/A   Clear
6:00 AM 69.8 °F - 64.4 °F 83% 29.80 in - ESE 4.6 mph - N/A   Clear
6:30 AM 71.6 °F - 64.4 °F 78% 29.80 in - ESE 4.6 mph - N/A   Clear
7:00 AM 73.4 °F - 64.4 °F 73% 29.83 in - ESE 9.2 mph - N/A   Clear
7:30 AM 73.4 °F - 64.4 °F 73% 29.83 in 5.6 mi ESE 9.2 mph - N/A   Unknown
8:00 AM 75.2 °F - 62.6 °F 65% 29.86 in 5.6 mi SE 8.1 mph - N/A   Unknown
8:30 AM 75.2 °F - 62.6 °F 65% 29.86 in 5.6 mi ESE 8.1 mph - N/A   Unknown
9:00 AM 80 °F - 59 °F 39% 29.87 in 6 mi SSE 8.1 mph - -   Partly Cloudy
9:00 AM 78.8 °F - 59.0 °F 51% 29.86 in - SSE 8.1 mph - N/A   Clear
9:30 AM 82.4 °F 82.5 °F 59.0 °F 45% 29.86 in - SSE 6.9 mph - N/A   Clear
10:00 AM 87.8 °F 85.7 °F 53.6 °F 31% 29.86 in - South 9.2 mph - N/A   Clear
10:30 AM 89.6 °F - 51.8 °F 27% 29.86 in - SSW 10.4 mph - N/A   Clear
11:00 AM 93.2 °F - 46.4 °F 20% 29.86 in - SSW 15.0 mph - N/A   Clear
11:30 AM 93.2 °F - 44.6 °F 19% 29.83 in - SSW 15.0 mph - N/A   Clear
12:00 PM 95.0 °F - 46.4 °F 19% 29.83 in - SSW 16.1 mph - N/A   Clear
12:30 PM 96.8 °F - 46.4 °F 18% 29.80 in - SSW 12.7 mph - N/A   Clear
1:00 PM 98.6 °F - 44.6 °F 16% 29.80 in - SSW 13.8 mph - N/A   Clear
1:30 PM 87.8 °F 86.5 °F 57.2 °F 35% 29.80 in - ESE 17.3 mph - N/A   Clear
2:00 PM 82.4 °F 82.0 °F 57.2 °F 42% 29.80 in 5.6 mi ESE 17.3 mph - N/A   Unknown
2:30 PM 82.4 °F 82.5 °F 59.0 °F 45% 29.77 in 5.0 mi ESE 15.0 mph - N/A   Unknown
3:00 PM 82 °F - 58 °F 34% 29.79 in 3 mi ESE 17.3 mph - -   Widespread Dust
3:00 PM 82.4 °F 82.5 °F 59.0 °F 45% 29.77 in 3.1 mi ESE 17.3 mph - N/A   Unknown
3:30 PM 82.4 °F 82.9 °F 60.8 °F 48% 29.77 in 2.5 mi ESE 13.8 mph - N/A   Unknown
4:00 PM 80.6 °F 81.5 °F 60.8 °F 51% 29.77 in 1.9 mi ESE 10.4 mph - N/A   Unknown
4:30 PM 80.6 °F 81.8 °F 62.6 °F 54% 29.77 in 1.9 mi ESE 8.1 mph - N/A   Unknown
5:00 PM 80.6 °F 81.5 °F 60.8 °F 51% 29.77 in 1.9 mi ESE 8.1 mph - N/A   Unknown
5:30 PM 80.6 °F 81.5 °F 60.8 °F 51% 29.77 in 2.2 mi SE 8.1 mph - N/A   Unknown
6:00 PM 78.8 °F - 60.8 °F 54% 29.80 in 2.2 mi SE 13.8 mph - N/A   Unknown
6:30 PM 78.8 °F - 60.8 °F 54% 29.80 in 2.5 mi SE 11.5 mph - N/A   Unknown
7:00 PM 77.0 °F - 62.6 °F 61% 29.80 in 3.1 mi ESE 12.7 mph - N/A   Unknown
7:30 PM 78.8 °F - 62.6 °F 57% 29.83 in 3.1 mi Variable 6.9 mph - N/A   Unknown
8:00 PM 77.0 °F - 60.8 °F 57% 29.86 in 3.7 mi SE 11.5 mph - N/A   Unknown
8:30 PM 78.8 °F - 62.6 °F 57% 29.86 in 3.7 mi SSE 5.8 mph - N/A   Unknown
9:00 PM 77 °F - 64 °F 54% 29.87 in 4 mi SE 3.5 mph - -   Widespread Dust
9:00 PM 77.0 °F - 64.4 °F 65% 29.86 in 3.7 mi SE 3.5 mph - N/A   Unknown
9:30 PM 77.0 °F - 62.6 °F 61% 29.86 in 3.7 mi WSW 6.9 mph - N/A   Unknown
10:00 PM 77.0 °F - 62.6 °F 61% 29.86 in 3.7 mi SSE 3.5 mph - N/A   Unknown
10:30 PM 75.2 °F - 64.4 °F 69% 29.86 in 3.7 mi SE 3.5 mph - N/A   Unknown
11:00 PM 75.2 °F - 64.4 °F 69% 29.86 in 3.7 mi Variable 2.3 mph - N/A   Unknown
11:30 PM 75.2 °F - 64.4 °F 69% 29.86 in 3.7 mi Calm Calm - N/A   Unknown